Humidity-temperature Sensor

Selected Measurement Type: Air Temperature

 
Air Temperature [°C]     6 entries per hour
Showing data from 4/4/2023 (00:00:00 Z) to 4/1/2023 (00:01:00 Z)
Previous Next [ Day | 3-Days | 7-Days ]
First Last
Prev [ Day | 3-Days | 7-Days ] Next
First Last

Start Time:     :
End Time:     :     
Time (in GMT) :00 :50 :40 :30 :20 :10
Previous Next [ Day | 3-Days | 7-Days ]
First Last
Prev [ Day | 3-Days | 7-Days ] Next
First Last


123 => good data
MM => data is determined as missing
-- => data not received/configured
Back to Top Back to Top
4/4/2023 00:00 to 23:10 27.81 27.92 27.91 27.84 27.70 27.90
4/3/2023 23:00 to 22:10 27.69 27.84 27.69 27.85 27.84 27.84
4/3/2023 22:00 to 21:10 27.90 27.99 27.86 27.65 27.91 27.79
4/3/2023 21:00 to 20:10 27.63 27.66 27.79 27.89 27.81 27.74
4/3/2023 20:00 to 19:10 27.87 27.95 28.02 27.90 28.20 27.98
4/3/2023 19:00 to 18:10 27.97 27.97 28.00 28.12 28.09 27.95
4/3/2023 18:00 to 17:10 27.89 27.64 27.75 27.61 27.65 27.76
4/3/2023 17:00 to 16:10 27.60 27.59 27.62 27.70 27.63 27.60
4/3/2023 16:00 to 15:10 27.52 27.63 27.55 27.62 27.54 27.64
4/3/2023 15:00 to 14:10 27.69 27.55 27.70 27.55 27.51 27.61
4/3/2023 14:00 to 13:10 27.68 27.60 27.64 27.73 27.60 27.68
4/3/2023 13:00 to 12:10 27.68 27.58 27.57 27.79 27.67 27.68
4/3/2023 12:00 to 11:10 27.71 27.71 27.75 27.73 27.71 27.81
4/3/2023 11:00 to 10:10 27.93 27.89 27.86 27.79 27.90 27.78
4/3/2023 10:00 to 9:10 27.84 27.90 27.78 27.87 27.88 27.91
4/3/2023 09:00 to 8:10 27.95 27.90 27.92 27.93 27.91 27.98
4/3/2023 08:00 to 7:10 28.01 28.04 27.98 27.91 27.84 27.94
4/3/2023 07:00 to 6:10 27.98 27.71 27.91 27.83 27.88 27.90
4/3/2023 06:00 to 5:10 27.93 27.94 27.83 27.86 27.90 27.89
4/3/2023 05:00 to 4:10 27.87 27.92 28.01 27.96 28.16 27.90
4/3/2023 04:00 to 3:10 28.11 28.05 27.86 27.99 28.01 28.00
4/3/2023 03:00 to 2:10 27.92 28.06 28.03 28.04 27.86 27.89
4/3/2023 02:00 to 1:10 28.10 28.03 27.97 27.97 27.99 27.87
4/3/2023 01:00 to 0:10 27.87 27.89 28.02 27.87 27.89 27.87
4/3/2023 00:00 to 23:10 27.99 28.01 27.97 27.93 27.81 27.87
4/2/2023 23:00 to 22:10 27.99 27.92 27.83 27.86 28.07 28.09
4/2/2023 22:00 to 21:10 27.90 27.91 27.93 28.03 27.91 27.95
4/2/2023 21:00 to 20:10 27.88 27.91 27.99 28.02 28.00 27.88
4/2/2023 20:00 to 19:10 27.86 27.99 27.71 27.83 27.77 27.87
4/2/2023 19:00 to 18:10 27.81 27.77 27.80 27.88 27.72 27.71
4/2/2023 18:00 to 17:10 27.61 27.65 27.58 27.64 27.60 27.57
4/2/2023 17:00 to 16:10 27.50 27.50 27.57 27.50 27.47 27.48
4/2/2023 16:00 to 15:10 27.57 27.49 27.52 27.52 27.50 27.47
4/2/2023 15:00 to 14:10 27.50 27.57 27.49 27.64 27.50 27.49
4/2/2023 14:00 to 13:10 27.55 27.43 27.54 27.60 27.52 27.51
4/2/2023 13:00 to 12:10 27.47 27.52 27.58 27.72 27.57 27.62
4/2/2023 12:00 to 11:10 27.61 27.52 27.57 27.59 27.50 27.84
4/2/2023 11:00 to 10:10 27.74 27.64 27.77 27.88 27.82 27.68
4/2/2023 10:00 to 9:10 27.89 27.72 27.83 27.70 27.96 27.89
4/2/2023 09:00 to 8:10 27.96 27.80 27.90 27.81 27.92 27.90
4/2/2023 08:00 to 7:10 27.88 27.94 27.85 27.99 27.82 28.00
4/2/2023 07:00 to 6:10 27.87 28.07 27.91 27.86 27.82 27.88
4/2/2023 06:00 to 5:10 27.87 27.88 27.92 27.96 27.95 27.88
4/2/2023 05:00 to 4:10 27.98 27.96 27.99 28.04 28.06 28.00
4/2/2023 04:00 to 3:10 27.97 27.91 27.89 27.99 27.97 27.94
4/2/2023 03:00 to 2:10 28.06 27.90 28.01 27.91 27.93 27.85
4/2/2023 02:00 to 1:10 27.87 27.96 27.88 27.71 27.91 27.84
4/2/2023 01:00 to 0:10 27.83 27.82 27.95 27.76 27.77 27.81
4/2/2023 00:00 to 23:10 27.83 27.78 27.89 27.74 27.76 27.91
4/1/2023 23:00 to 22:10 27.99 27.84 27.79 27.92 27.87 27.83
4/1/2023 22:00 to 21:10 27.91 27.95 27.98 27.94 27.92 27.91
4/1/2023 21:00 to 20:10 27.97 28.01 28.04 28.02 28.01 27.95
4/1/2023 20:00 to 19:10 27.89 28.07 27.95 28.11 28.05 27.74
4/1/2023 19:00 to 18:10 27.77 27.80 27.79 27.73 27.74 27.78
4/1/2023 18:00 to 17:10 27.74 27.74 27.70 27.73 27.60 27.62
4/1/2023 17:00 to 16:10 27.77 27.58 27.75 27.68 27.72 27.57
4/1/2023 16:00 to 15:10 27.65 27.74 27.62 27.73 27.48 27.57
4/1/2023 15:00 to 14:10 27.58 27.56 27.59 27.65 27.61 27.73
4/1/2023 14:00 to 13:10 27.72 27.64 27.74 27.77 27.80 27.68
4/1/2023 13:00 to 12:10 27.78 27.78 27.65 27.87 27.79 27.81
4/1/2023 12:00 to 11:10 27.72 27.77 27.85 27.86 27.91 28.02
4/1/2023 11:00 to 10:10 28.00 28.02 27.99 27.94 28.02 27.99
4/1/2023 10:00 to 9:10 27.97 27.96 27.93 27.96 27.91 28.06
4/1/2023 09:00 to 8:10 27.91 27.93 28.00 28.04 28.02 28.02
4/1/2023 08:00 to 7:10 28.10 28.05 28.09 28.13 27.93 27.88
4/1/2023 07:00 to 6:10 28.04 27.93 27.88 27.91 27.96 27.85
4/1/2023 06:00 to 5:10 27.97 27.85 27.97 27.96 27.89 27.97
4/1/2023 05:00 to 4:10 27.84 27.80 27.85 27.88 27.77 27.85
4/1/2023 04:00 to 3:10 27.78 27.81 27.81 27.81 27.79 27.73
4/1/2023 03:00 to 2:10 27.99 27.79 27.85 27.87 27.97 28.07
4/1/2023 02:00 to 1:10 28.16 27.90 27.82 27.76 27.85 27.68
4/1/2023 01:00 to 0:10 27.56 27.75 27.89 27.79 27.76 27.74